Weather in Kilkenny

Ireland     52°39′40″N   7°14′59″W
temp.,
°C
wind,
m/s
gust,
m/s
humid.,
%
clouds,
%
prec.,
mm/h
press.,
hPa
HPBL,
m
26 february, fri
fri2600:00+2ssw22930 0.0 103427
03:00+2s229223 0.0 103429
06:00+2s239447 0.0 103433
09:00+5s389528 0.0 1035311
12:00+10ssw587741 0.0 1035987
15:00+10ssw687844 0.0 10351039
18:00+7ssw498772 0.1 1036428
21:00+3s359590 0.0 103797
27 february, sat
sat2700:00+2s239652 0.0 103948
03:00+3s239622 0.0 103952
06:00+2s229611 0.0 103923
09:00+5sse119117 0.0 104048
12:00+10sse227914 0.0 1041429
15:00+11s227620 0.0 1040671
18:00+9se128656 0.0 104032
21:00+7s2291100 0.0 104071
28 february, sun
sun2800:00+6s119189 0.0 104022
03:00+3sse129539 0.0 103922
06:00+1se119443 0.0 103822
09:00+4se118549 0.0 103848
12:00+8ese127074 0.0 1037437
15:00+10se236984 0.0 1035721
18:00+5se229191 0.0 103427
21:00+3e11925 0.0 103422
1 march, mon
mon100:00+2e128812 0.0 103422
03:00+1e118916 0.0 103222
06:00+1e11939 0.0 103122
09:00+4ene22910 0.0 1031108
12:00+10ese36710 0.0 1030560
15:00+10ese46700 0.0 1028686
18:00+5ese35900 0.0 1027101
21:00+2e22920 0.0 102831
2 march, tue
tue200:00+2e22940 0.0 102740
03:00+2e22970 0.0 102526
06:00+1e22992 0.0 102445
09:00+4e259518 0.0 1024194
12:00+9se357715 0.0 1024659
15:00+10sse34740 0.0 1023679
18:00+6se12920 0.0 102224
21:00+3e11940 0.0 102322